Simultaneous Nadir Overpasses (SNOs) Predictions

Prediction of SNOs near US between AQUA and NPP Satellite Orbit:

Table of predicted SNOs near US for the next 10.0 days since TLE Epoch: 7/7/2013
Index Date (AQUA) Time (AQUA) AQUA Lat,Lon Date (NPP) Time (NPP) NPP Lat,Lon Distance(km) Time Diff (sec)
1 07/08/2013 09:24:54 20.01,-114.29 07/08/2013 09:16:34 18.92,-114.96 140.53 500
2 07/11/2013 06:31:19 44.17, -65.88 07/11/2013 06:30:39 44.52, -67.82 158.95 40
3 07/11/2013 08:08:35 49.94, -88.39 07/11/2013 08:10:27 50.39, -90.77 176.70 112
4 07/11/2013 09:47:29 49.88,-113.13 07/11/2013 09:51:55 50.50,-116.09 221.47 266
5 07/13/2013 19:06:43 49.95, -92.56 07/13/2013 19:00:42 49.65, -94.38 134.63 361
6 07/13/2013 20:45:36 49.95,-117.28 07/13/2013 20:42:10 49.54,-119.70 179.91 206
